Flag for Canada Weather past 2 weeks in Rothesay, New Brunswick, Canada

Now
55 °F

Broken clouds.


Feels Like: 55 °F
Forecast: 46 / 64 °F
Wind: 3 mph from West

Location: Saint John

Current Time: May 5, 2015 at 10:15:56 AM

Latest Report: May 5, 2015 at 9:00 AM


Visibility: 15 mi

Pressure: 30.00 "Hg

Humidity: 67%

Dew point: 45 °F

Location of RothesayLocation

Historic Weather in Rothesay — Graph

°F

Rothesay temperature yesterday

Maximum temperature yesterday: 59 °F (at 3:00 PM)
Minimum temperature yesterday: 36 °F (at 12:00 AM)
Average temperature yesterday: 47 °F

Past Weeks' High & Low Weather Summary

 TemperatureHumidityPressure
High59 °F (Apr 22, 3:00 PM)100% (Apr 21, 4:00 PM)30.35 "Hg (Apr 21, 4:00 PM)
Low21 °F (May 2, 6:00 AM)25% (Apr 20, 2:00 PM)29.36 "Hg (Apr 28, 7:00 PM)
Average40 °F83%29.80 "Hg
* Reported Apr 20 9:00 AM — May 5 9:00 AM, Rothesay, Weather by CustomWeather, © 2015

Note: Actual official high and low records may vary slightly from our data, if they occured in-between our weather recording intervals... More about our weather records

Advertising

Rothesay weather history for previous 24 hours

 ConditionsComfort  
Time TempWeatherWind HumidityBarometerVisibility
9:00 AM
Tue, May 5
55 °FBroken clouds.3 mph67%30.00 "Hg15 mi
8:00 AM46 °FBroken clouds.2 mph87%29.98 "Hg15 mi
7:47 AM46 °FCloudy.3 mph82%29.98 "Hg15 mi
7:00 AM45 °FSprinkles. Mostly cloudy.7 mph87%29.96 "Hg15 mi
6:00 AM45 °FMostly cloudy.7 mph87%29.95 "Hg15 mi
5:00 AM45 °FPassing clouds.8 mph87%29.94 "Hg15 mi
4:00 AM46 °FPassing clouds.8 mph82%29.94 "Hg15 mi
3:00 AM46 °FPassing clouds.10 mph87%29.96 "Hg15 mi
2:00 AM45 °FFog.10 mph93%29.97 "Hg3 mi
1:49 AM43 °FFog.12 mph100%29.97 "Hg3 mi
1:00 AM45 °FFog.10 mph93%30.00 "Hg3 mi
12:00 AM45 °FFog.13 mph100%30.02 "Hg3 mi
11:00 PM
Mon, May 4
46 °FFog.14 mph93%30.06 "Hg3 mi
10:00 PM46 °FFog.13 mph93%30.08 "Hg3 mi
9:00 PM46 °FFog.12 mph93%30.09 "Hg3 mi
8:00 PM46 °FLow clouds.16 mph93%30.09 "Hg8 mi
7:00 PM48 °FPartly sunny.13 mph87%30.10 "Hg15 mi
5:00 PM55 °FPassing clouds.21 mph67%30.11 "Hg15 mi
4:00 PM57 °FScattered clouds.17 mph63%30.12 "Hg15 mi
3:00 PM59 °FScattered clouds.17 mph59%30.14 "Hg15 mi
2:00 PM57 °FScattered clouds.15 mph63%30.15 "Hg15 mi
1:00 PM55 °FScattered clouds.17 mph63%30.16 "Hg15 mi
12:00 PM55 °FPartly sunny.13 mph63%30.17 "Hg15 mi
11:00 AM55 °FScattered clouds.12 mph63%30.19 "Hg15 mi
10:00 AM50 °FPassing clouds.10 mph76%30.19 "Hg15 mi
Weather by CustomWeather, © 2015

See weather overviewHow to use our weather pages